Location: *
(10.3472°S, 112.7083°E)
Time: 12:38:12
(UTC+00:00)

Daily predictions for brighter satellites

Satellite Brightness Start Highest point End
(mag) Time Altitude Azimuth Time Altitude Azimuth Time Altitude Azimuth
Ariane H10 3.0 12:03:11 10° WNW 12:05:24 48° N 12:05:24 48° N
Meteor 1-25 Rocket 4.1 12:01:28 10° N 12:07:01 87° W 12:12:36 10° S
Meteor 1-10 Rocket 4.3 12:02:46 10° S 12:08:22 59° E 12:10:09 41° NE
ADEOS Rocket 4.2 12:04:36 10° SE 12:07:34 22° ESE 12:07:34 22° ESE
CZ-4B R/B 4.3 12:09:51 10° S 12:13:49 40° WSW 12:17:52 10° NNW
NOSS 3-4 (A) 4.4 12:10:02 10° N 12:17:50 42° ENE 12:25:51 10° SE
NOSS 3-4 (C) 4.4 12:10:09 10° N 12:17:51 42° ENE 12:25:48 10° SE
Landsat 7 3.6 12:13:40 10° SSE 12:18:25 84° ENE 12:19:41 49° N
Delta 142 4.5 12:14:29 10° WNW 12:18:55 53° SSW 12:22:18 22° SE
ATLAS 5 CENTAUR R/B 3.6 12:12:50 10° NW 12:19:50 53° WSW 12:27:14 10° S
deb Centaur AC-2 3.8 12:16:01 10° WSW 12:20:19 88° SSE 12:20:19 88° SSE
Meteor 1-27 Rocket 4.1 12:18:25 10° S 12:23:51 48° ESE 12:23:51 48° ESE
Cosmos 1331 Rocket 3.9 12:21:14 10° SSW 12:26:29 85° W 12:27:19 64° N
CZ-4B R/B 3.1 12:24:31 10° SSE 12:29:53 67° E 12:29:53 67° E
Cosmos 1943 Rocket 4.1 12:41:45 10° SSE 12:43:37 18° SSE 12:43:37 18° SSE
Okean O Rocket 4.0 12:44:52 10° SSE 12:45:35 14° SSE 12:45:35 14° SSE
Cosmos 2278 Rocket 2.8 12:56:08 10° SSW 13:00:22 52° SSW 13:00:22 52° SSW
Milstar 3 Cent rocket 3.9 12:55:44 10° WSW 13:17:40 79° SSE 13:19:49 66° E
USA 267 4.4 13:25:26 34° WNW 13:25:26 34° WNW 13:30:42 10° WSW
H-2A ROCKET BODY 4.1 14:06:08 64° S 14:06:08 64° S 14:37:22 10° ESE
Centaur D-1AR AC-36 4.1 18:56:31 31° ENE 18:56:31 31° ENE 19:03:18 10° ENE
ATLAS 3B R/B 4.2 18:49:25 10° S 18:52:07 25° S 18:52:07 25° S
CZ-2C R/B 4.4 19:12:20 25° SSE 19:12:20 25° SSE 19:14:35 10° S
Cosmos 2322 Rocket 3.7 19:26:38 10° S 19:31:40 33° ESE 19:36:39 10° NE
Cosmos 2297 Rocket 3.9 19:33:05 23° NE 19:34:38 26° ENE 19:39:17 10° SE
Cosmos 1725 Rocket 4.3 19:30:55 10° S 19:37:11 64° E 19:38:30 52° NE
Skynet4D Del rocket 4.0 19:40:03 64° ENE 19:40:03 64° ENE 19:45:07 10° ESE
Hubble Space Telescope 3.3 19:43:14 16° S 19:43:14 16° S 19:44:37 10° SSE
Envisat 4.5 19:47:24 27° SSW 19:47:24 27° SSW 19:49:38 10° SSW
Geosat 4.4 19:44:54 55° E 19:45:31 59° ESE 19:50:27 10° SSW
Maqsat 3 4.2 19:47:48 66° N 19:47:54 66° N 19:58:00 10° E
SL-16 R/B 2.7 19:47:39 10° SSW 19:51:37 47° SSW 19:51:37 47° SSW
SL-16 R/B 2.4 19:49:26 10° S 19:55:32 66° WSW 19:55:32 66° WSW
ARIANE 5 R/B 3.5 19:57:09 37° N 19:57:43 38° N 20:16:42 10° ENE
USA 281 3.3 19:51:43 10° NNE 19:58:14 76° ESE 20:04:49 10° SSW
CZ-2C R/B 2.6 19:53:36 10° S 19:59:00 71° WSW 19:59:00 71° WSW
Palapa 6 Rocket 4.4 20:01:57 32° NE 20:01:57 32° NE 20:04:30 10° NE
H-2A R/B 4.5 19:57:46 10° ENE 20:01:27 21° ESE 20:05:12 10° SSE
SWIFT 3.7 20:07:32 30° S 20:08:15 32° SSE 20:11:55 10° ESE
BREEZE-M DEB (TANK) 4.2 20:16:22 13° SSE 20:16:22 13° SSE 20:16:38 10° SSE
H-2A R/B 4.5 20:11:55 10° NE 20:14:56 28° ESE 20:17:58 10° SSE
Cosmos 2228 4.1 20:19:38 14° NNE 20:22:51 41° E 20:26:49 10° SSE
USA 234 4.1 20:20:08 10° S 20:25:51 33° SW 20:27:56 27° W
Meteor 2-15 4.3 20:20:49 10° SSW 20:26:50 65° W 20:32:11 13° N
Cosmos 1544 Rocket 3.3 20:26:42 53° NNW 20:27:35 73° W 20:31:55 10° S
Cosmos 1680 Rocket 4.0 20:23:38 10° S 20:28:54 62° ESE 20:34:07 10° NNE
Meteor 2-8 Rocket 4.3 20:23:17 10° S 20:29:24 85° W 20:35:26 10° N
Cosmos 2227 Rocket 3.0 20:24:44 12° N 20:29:43 48° ENE 20:35:08 10° SSE
Mugunghwa Rocket 4.3 20:29:58 21° WSW 20:35:03 71° NNW 20:43:00 10° NE
ARIANE 44L R/B 3.6 20:37:15 16° NNE 20:37:15 16° NNE 20:37:53 10° NE
Cosmos 2112 Rocket 4.4 20:34:22 10° S 20:39:40 67° ESE 20:44:57 10° NNE
Meteor 2-1 Rocket 4.2 20:39:03 17° NNW 20:43:22 68° W 20:49:07 10° S
Cosmos 921 Rocket 2.8 20:43:16 10° SSW 20:47:26 78° W 20:51:36 10° N
ERS-1 4.4 20:48:00 10° NNE 20:52:57 88° ESE 20:57:59 10° SSW
Atlas Centaur 2 1.1 20:51:41 30° W 20:53:06 50° NNW 20:56:38 10° NE
ARIANE 5 R/B 2.5 20:50:36 10° N 20:55:48 74° WNW 21:01:02 10° SSW
Cosmos 1809 Rocket 4.4 20:51:36 10° N 20:57:41 71° W 21:03:48 10° S
Cosmos 2360 Rocket 2.6 20:54:01 10° SW 20:59:15 40° WNW 21:04:30 10° N
Cosmos 1484 Rocket 4.1 21:01:38 19° W 21:01:38 19° W 21:03:53 10° SW
Spelda 4.1 20:58:24 21° WNW 21:01:29 48° N 21:19:44 10° ENE
Cosmos 1939 Rocket 2.6 20:57:50 10° N 21:01:40 75° W 21:05:28 10° SSW
Fermi 3.8 20:59:05 18° W 21:01:52 53° NNW 21:05:50 10° NE
Cosmos 1464 Rocket 4.4 20:58:39 10° S 21:04:45 65° E 21:10:48 10° NNE
Centaur D AC-29 3.3 21:02:51 10° SSW 21:05:26 22° SSE 21:09:46 10° E
ARIANE 5 R/B 3.4 21:03:17 10° N 21:05:37 16° NNE 21:10:21 10° ENE
Cosmos 1125 Rocket 4.3 21:02:32 18° NW 21:05:43 32° WSW 21:10:25 10° SSW
Cosmos 1238 Rocket 3.5 21:02:21 10° N 21:06:01 57° E 21:10:25 10° SSE
Cosmos 2219 Rocket 2.2 21:00:48 10° SSW 21:06:24 89° W 21:12:01 10° NNE
Lacrosse 5 rocket 1.2 21:04:02 10° SW 21:07:50 60° WNW 21:11:47 10° NNE
ARGOS 4.2 21:03:51 10° NNE 21:08:59 49° ESE 21:14:09 10° S
YAOGAN 11 4.2 21:04:58 10° SSE 21:09:16 77° ENE 21:13:30 10° N
Tsikada Rocket 4.1 21:07:49 10° N 21:14:01 86° E 21:20:21 10° S
Cosmos 2219 3.4 21:08:38 10° NNW 21:14:21 80° ENE 21:20:07 10° SSE
Cosmos 2322 Rocket 3.5 21:11:49 10° WSW 21:15:20 17° WNW 21:18:51 10° NW
FengYun 1-2 T 4.4 21:11:00 10° NNE 21:16:32 82° ESE 21:22:03 10° S
Cosmos 1606 Rocket 3.5 21:13:08 10° N 21:17:25 87° E 21:21:45 10° S
Cosmos 2297 Rocket 3.5 21:14:55 13° WNW 21:18:24 22° WSW 21:22:43 10° SSW
Aurora 2 Rocket 3.4 21:14:45 11° W 21:18:48 33° SSW 21:22:07 10° SE
SEDSat Delta rocket 3.7 21:15:05 13° WNW 21:19:34 68° SSW 21:25:27 10° SE
Cosmos 1726 Rocket 3.9 21:16:58 10° N 21:21:14 66° E 21:25:30 10° SSE
Cosmos 2333 Rocket 2.9 21:16:26 10° SW 21:21:22 31° WNW 21:26:19 10° NNW
COSMOS 2428 3.6 21:16:11 10° S 21:21:44 56° ESE 21:27:16 10° NNE
USA 276 2.5 21:22:09 12° NW 21:24:48 45° SW 21:27:43 10° SSE
Cosmos 724 4.2 21:25:01 10° NNW 21:30:45 80° WSW 21:36:31 10° SSE
Cosmos 2034 Rocket 4.4 21:24:42 10° S 21:31:04 74° E 21:37:25 10° N
ARIANE 5 R/B 4.4 21:11:09 10° W 21:33:07 36° NNW 21:37:28 10° NE
ARIANE 5 R/B 2.4 21:29:28 10° WNW 21:33:44 29° NNW 21:35:44 10° NE
Cosmos 2082 4.1 21:28:52 10° N 21:34:31 69° ENE 21:40:13 10° SSE
